Flag for Germany Weather past 2 weeks in Konstanz, Baden-Württemberg, Germany

Now
43 °F

Overcast.


Feels Like: 42 °F
Forecast: 39 / 47 °F
Wind: 3 mph from West

Location: Konstanz

Current Time: Mar 26, 2015 at 8:32:28 PM

Latest Report: Mar 26, 2015 at 8:00 PM


Visibility: 6 mi

Pressure: 29.90 "Hg

Humidity: 80%

Dew point: 37 °F

Location of KonstanzLocation

Historic Weather in Konstanz — Graph

°F

Konstanz temperature yesterday

Maximum temperature yesterday: 56 °F (at 2:00 PM)
Minimum temperature yesterday: 40 °F (at 7:00 AM)
Average temperature yesterday: 47 °F

Past Weeks' High & Low Weather Summary

 TemperatureHumidityPressure
High64 °F (Mar 18, 4:00 PM)100% (Mar 24, 6:00 AM)30.45 "Hg (Mar 24, 6:00 AM)
Low30 °F (Mar 14, 7:00 AM)31% (Mar 20, 5:00 PM)29.56 "Hg (Mar 25, 2:00 PM)
Average44 °F70%30.09 "Hg
* Reported Mar 11 7:00 PM — Mar 26 7:00 PM, Konstanz, Weather by CustomWeather, © 2015

Note: Actual official high and low records may vary slightly from our data, if they occured in-between our weather recording intervals... More about our weather records

Advertising

Konstanz weather history for previous 24 hours

 ConditionsComfort  
Time TempWeatherWind HumidityBarometerVisibility
7:00 PM
Thu, Mar 26
43 °FOvercast.3 mph78%29.89 "Hg7 mi
6:00 PM44 °FOvercast.3 mph77%29.88 "Hg11 mi
5:00 PM45 °FOvercast.3 mph77%29.86 "Hg10 mi
4:00 PM45 °FOvercast.5 mph76%29.85 "Hg10 mi
3:00 PM45 °FOvercast.3 mph77%29.85 "Hg10 mi
2:00 PM46 °FOvercast.3 mph75%29.84 "Hg11 mi
1:00 PM44 °FOvercast.3 mph78%29.85 "Hg19 mi
12:00 PM44 °FOvercast.2 mph81%29.86 "Hg19 mi
11:00 AM42 °FOvercast.3 mph83%29.88 "Hg16 mi
10:00 AM41 °FLight rain. Low clouds.3 mph91%29.88 "Hg11 mi
9:00 AM40 °FLight rain. Low clouds.3 mph93%29.88 "Hg9 mi
8:00 AM40 °FLight rain. Low clouds.3 mph93%29.87 "Hg11 mi
7:00 AM40 °FLight rain. Low clouds.3 mph93%29.85 "Hg9 mi
6:00 AM39 °FLight rain. Low clouds.2 mph97%29.83 "Hg4 mi
5:00 AM40 °FLight rain. Overcast.2 mph97%29.81 "Hg3 mi
4:00 AM40 °FLight rain. Overcast.3 mph95%29.79 "Hg5 mi
3:00 AM41 °FLight rain. Overcast.5 mph95%29.77 "Hg9 mi
2:00 AM41 °FLight freezing rain. Overcast.3 mph96%29.76 "Hg4 mi
1:00 AM42 °FLight freezing rain. Overcast.5 mph95%29.74 "Hg4 mi
12:00 AM42 °FLight freezing rain. Overcast.6 mph90%29.72 "Hg9 mi
11:00 PM
Wed, Mar 25
43 °FQuite cool.5 mph92%29.70 "Hg9 mi
10:00 PM44 °FLight freezing rain. Overcast.3 mph90%29.68 "Hg6 mi
9:00 PM46 °FLight rain. Overcast.5 mph81%29.66 "Hg9 mi
8:00 PM47 °FOvercast.6 mph81%29.64 "Hg10 mi
Weather by CustomWeather, © 2015

See weather overviewHow to use our weather pages